Wind_Speed
11 12 9 6 4 2 2 2 3 3 3 7 11 12 13 14 14 14 15 16 14 13 13 13 14 14 14 14 16 17 19 21 22 24 25 25 24 25 25 24 22 20 18
12 13 12 8 8 4 3 4 1 3 4 6 10 11 12 14 15 16 17 16 15 14 13 12 13 14 13 13 14 17 20 22 25 24 25 26 27 27 26 25 24 22 21
16 14 16 12 11 9 7 6 3 2 4 6 8 10 11 12 13 14 15 15 15 15 15 15 14 12 11 12 15 18 22 25 23 25 27 26 27 27 27 25 23 22 22
18 18 18 15 13 10 9 8 6 2 1 4 6 6 7 9 10 11 12 15 16 15 15 15 14 14 15 15 16 19 22 23 26 27 27 25 26 28 27 26 24 22 22
21 21 19 17 15 12 8 9 8 7 3 4 3 3 4 6 8 9 11 13 15 15 15 14 15 17 17 18 20 22 22 23 25 27 29 29 28 29 28 26 25 23 23
25 24 22 20 20 15 12 11 10 10 7 4 4 2 3 4 4 6 9 11 13 13 13 14 15 16 19 21 24 26 28 26 27 28 27 29 29 29 29 27 26 25 24
28 26 26 24 22 19 17 15 13 11 10 7 6 3 4 2 3 4 5 7 9 11 11 12 13 15 17 20 24 27 29 32 31 31 28 27 28 28 30 28 27 27 25
33 31 30 27 23 20 21 18 18 17 15 12 9 7 3 2 2 3 4 6 8 11 10 11 12 14 15 19 23 26 30 33 33 31 31 28 27 29 31 30 27 29 24
35 34 34 29 26 25 22 19 20 18 18 15 12 10 7 5 3 4 5 5 7 10 12 11 12 15 16 18 21 26 27 31 34 33 31 28 27 29 31 30 29 26 23
39 39 38 34 30 24 24 22 20 19 18 18 16 12 11 9 6 6 7 9 9 11 13 13 13 14 17 18 20 23 25 28 32 33 31 29 27 29 31 29 28 24 22
42 44 43 38 35 30 25 26 24 22 20 20 18 16 14 12 10 9 10 12 12 13 15 14 14 17 20 23 21 22 25 27 30 32 32 28 27 29 31 29 27 23 23
44 45 44 43 41 36 31 29 29 25 23 22 21 20 19 17 14 13 12 15 15 15 18 17 17 19 23 25 23 24 24 26 29 31 33 29 28 29 31 29 27 24 24
49 49 47 46 46 43 36 32 31 29 25 23 23 22 22 20 18 16 16 17 18 18 19 20 19 19 23 29 28 26 25 25 28 31 32 30 27 28 31 29 28 24 24
54 51 52 48 47 46 43 37 35 32 28 26 26 26 25 24 23 20 21 20 21 21 21 22 22 23 27 27 26 27 28 28 30 31 31 29 26 28 30 28 28 25 26
58 57 56 50 44 43 43 39 39 36 37 33 31 31 29 28 27 26 24 24 22 24 23 25 26 28 30 26 27 25 26 28 31 31 32 29 27 28 30 27 27 28 28
63 60 60 60 49 47 46 43 41 45 37 38 37 34 33 31 31 29 27 27 24 24 26 26 30 32 33 28 26 22 27 29 30 32 31 31 27 29 29 26 27 28 29
66 65 64 63 59 57 54 49 48 45 51 43 39 38 37 34 34 36 33 32 29 27 28 30 34 40 43 43 27 26 28 28 30 32 32 33 28 28 30 26 26 28 29
71 70 70 72 69 64 60 56 54 51 49 44 46 44 42 43 42 40 40 34 28 27 28 34 38 40 44 51 33 18 29 32 33 32 31 33 30 29 27 25 26 27 27
75 75 74 74 75 74 67 63 61 59 51 51 47 46 48 44 47 44 42 29 29 26 29 33 33 38 44 44 34 38 29 35 36 33 30 33 31 31 28 24 26 24 26
80 77 78 77 72 73 71 69 62 65 58 56 50 52 47 47 45 46 25 32 29 31 33 30 36 38 45 46 41 36 34 38 36 32 31 32 31 31 27 26 27 26 26
84 82 82 83 80 75 75 70 72 72 65 62 62 49 52 49 42 36 29 25 29 28 33 35 38 41 40 40 48 41 40 40 38 33 31 31 32 32 26 26 29 29 28
84 91 88 83 86 76 73 72 71 69 63 64 62 55 64 49 40 33 28 27 27 28 34 38 40 45 42 44 45 44 41 44 35 28 29 31 32 33 28 28 28 28 25
86 87 83 80 84 78 59 72 75 70 61 63 50 57 59 51 40 37 31 34 34 33 34 41 44 44 49 51 40 40 42 42 40 30 31 30 32 32 29 30 28 28 23
87 88 86 78 83 89 69 64 53 70 74 78 60 62 69 53 50 50 41 33 35 33 35 41 44 47 56 48 43 44 42 42 40 41 42 26 30 32 29 30 29 26 24
63 82 88 88 71 63 68 83 72 74 61 63 57 53 62 60 51 55 46 35 34 35 38 42 52 57 50 45 37 42 37 41 40 39 35 34 27 29 27 28 29 27 24
44 47 93 74 87 83 74 67 59 57 63 70 73 65 68 65 60 54 33 42 31 38 41 50 57 57 52 36 31 39 41 38 39 36 28 29 31 32 25 28 27 26 26
Wind_Direction
218 202 170 180 156 106 66 47 37 36 88 67 69 69 71 64 59 53 51 42 34 31 27 21 17 13 13 8 1 356 357 351 352 350 349 349 357 355 351 351 347 339 334
210 223 193 199 205 191 253 266 327 30 17 42 66 68 66 63 60 54 48 37 29 23 21 16 17 14 10 7 0 360 358 357 354 351 350 356 358 357 352 348 344 338 334
221 214 218 206 215 212 236 250 233 61 39 58 53 58 61 58 55 53 48 39 31 22 18 16 14 12 11 13 12 4 5 3 355 356 353 355 357 359 354 346 342 337 333
217 219 222 218 225 232 245 246 244 255 20 50 53 51 49 55 50 51 44 36 30 25 25 26 20 9 5 7 9 6 6 2 360 356 354 353 358 358 354 344 340 336 328
219 226 225 230 233 236 246 246 247 263 301 344 20 50 55 44 47 45 43 38 33 30 22 22 26 21 15 7 1 3 7 4 2 358 352 352 357 355 349 344 343 336 329
222 224 230 231 241 238 250 249 249 260 268 292 325 1 14 31 52 42 43 41 36 28 24 17 23 20 14 13 10 4 360 2 360 0 356 352 352 351 346 346 347 337 331
231 230 231 233 237 244 253 254 250 260 266 264 283 292 311 351 1 35 38 23 26 25 24 22 19 21 18 12 8 7 2 2 1 354 354 353 350 348 346 348 347 336 334
235 238 238 237 236 243 250 252 252 259 268 264 265 267 266 291 326 335 15 11 6 10 11 10 4 8 11 10 10 10 6 2 359 353 352 352 348 347 345 347 348 339 340
236 241 243 248 246 247 245 250 254 259 260 259 261 268 265 265 268 299 329 344 349 357 350 352 358 351 1 4 6 9 7 3 360 355 351 348 347 345 343 345 346 342 343
227 238 244 247 255 251 246 252 253 256 256 256 257 260 263 266 267 285 308 319 331 341 340 336 344 348 346 350 352 2 1 359 360 355 354 346 345 342 341 342 345 342 345
226 231 241 246 250 249 249 250 252 251 251 254 259 261 255 260 266 276 294 306 313 321 326 326 331 339 340 340 343 351 359 356 355 355 355 348 343 340 339 338 343 340 341
220 223 232 241 247 249 251 247 250 249 249 252 256 258 255 258 260 268 281 292 299 309 316 317 331 341 341 337 336 339 351 352 352 353 355 348 341 337 336 333 337 337 338
217 219 223 233 241 245 247 244 245 248 243 247 251 251 253 256 257 264 274 284 291 301 309 311 322 330 334 326 330 334 334 339 349 350 355 347 338 333 333 330 333 335 336
217 217 220 224 231 240 242 238 238 240 236 242 242 247 250 252 255 259 267 275 284 298 303 305 310 315 320 322 324 334 336 336 341 347 351 344 335 331 331 328 329 331 334
216 221 219 219 221 230 236 238 231 231 237 235 237 241 244 248 251 256 263 268 277 291 298 301 303 316 318 320 320 326 328 335 334 340 345 344 334 329 330 327 326 327 332
216 219 226 226 218 217 218 225 224 227 220 230 233 235 241 246 250 254 257 263 268 283 291 295 301 305 306 312 309 315 318 328 331 333 339 342 334 328 327 326 323 325 329
217 219 224 205 219 214 216 216 219 219 227 211 224 232 238 240 244 248 249 257 265 280 293 294 303 307 308 306 297 306 311 326 330 328 334 340 332 328 325 324 319 325 326
217 220 225 223 201 210 211 216 217 225 220 215 222 227 235 234 241 247 249 255 272 289 291 302 302 317 314 307 286 298 316 327 326 326 331 337 329 326 324 321 319 326 325
217 219 225 230 222 204 207 211 213 218 223 228 222 230 236 242 241 245 243 252 279 282 300 302 309 309 305 330 316 319 317 322 327 324 328 335 327 324 322 320 319 325 327
219 220 224 232 235 215 213 209 210 218 221 223 224 228 239 239 245 247 243 257 275 299 308 284 308 311 315 328 332 330 321 321 327 324 324 333 326 322 320 320 319 326 326
223 221 224 228 233 234 233 212 216 214 216 220 224 229 237 240 246 248 247 265 288 305 298 306 302 305 308 325 318 326 319 315 323 324 320 328 325 320 318 318 320 324 327
227 223 223 226 231 235 234 227 224 222 217 232 223 221 237 232 235 238 248 272 284 287 289 296 299 301 306 310 312 318 315 317 316 323 323 324 324 319 317 316 321 322 324
226 233 227 226 229 227 236 240 245 231 238 232 238 251 230 227 232 236 244 254 263 273 283 285 294 294 300 303 302 311 315 319 322 318 321 318 319 317 315 314 323 322 318
225 227 234 238 231 232 227 240 235 235 245 249 249 254 245 224 233 229 233 243 256 268 276 286 284 287 290 292 298 301 308 312 317 319 316 315 314 313 311 314 321 319 313
238 228 230 234 240 245 242 240 237 241 242 245 253 249 252 248 231 246 246 247 248 261 274 267 286 290 288 283 294 302 309 307 314 317 314 312 313 309 304 309 315 314 311
248 250 233 234 233 238 244 246 245 242 247 251 253 254 254 256 238 258 239 261 265 258 269 270 279 289 294 286 301 301 307 305 309 310 309 304 306 309 301 306 317 314 308
Height
5909 5908 5908 5909 5909 5909 5909 5908 5907 5906 5906 5904 5902 5902 5901 5900 5900 5899 5898 5897 5896 5894 5893 5891 5890 5890 5889 5888 5886 5884 5882 5880 5876 5875 5873 5870 5866 5865 5862 5860 5858 5855 5853
5907 5907 5907 5908 5908 5908 5908 5908 5907 5907 5906 5905 5902 5901 5901 5900 5899 5899 5898 5897 5896 5894 5892 5891 5890 5890 5889 5886 5885 5882 5880 5878 5877 5875 5873 5869 5867 5863 5860 5858 5855 5853 5850
5906 5906 5906 5906 5907 5907 5907 5908 5907 5906 5905 5904 5903 5902 5901 5900 5898 5898 5897 5897 5895 5894 5892 5891 5890 5889 5887 5885 5884 5882 5881 5880 5877 5875 5873 5869 5866 5861 5859 5856 5853 5850 5848
5904 5904 5904 5904 5905 5906 5907 5907 5907 5906 5905 5903 5902 5902 5901 5899 5898 5897 5897 5897 5895 5894 5893 5891 5890 5889 5888 5885 5883 5883 5881 5879 5877 5874 5870 5866 5863 5861 5858 5856 5852 5848 5846
5901 5902 5902 5903 5904 5905 5905 5906 5906 5905 5905 5904 5903 5901 5900 5899 5898 5898 5897 5897 5895 5895 5895 5893 5890 5890 5889 5888 5886 5884 5881 5878 5873 5869 5868 5866 5863 5860 5857 5854 5851 5846 5843
5898 5899 5899 5901 5902 5903 5903 5903 5904 5904 5904 5903 5903 5901 5900 5899 5898 5898 5897 5896 5895 5894 5893 5894 5891 5889 5889 5888 5885 5882 5880 5875 5873 5869 5866 5864 5860 5857 5855 5852 5849 5844 5840
5895 5896 5897 5898 5899 5900 5900 5902 5902 5902 5902 5901 5901 5900 5900 5899 5900 5897 5896 5897 5895 5893 5892 5893 5891 5888 5887 5886 5883 5881 5878 5874 5870 5868 5864 5860 5858 5855 5853 5849 5846 5842 5837
5892 5893 5894 5894 5895 5896 5897 5898 5899 5900 5900 5899 5898 5898 5898 5898 5897 5898 5897 5897 5895 5894 5892 5892 5892 5889 5885 5883 5881 5878 5876 5873 5869 5866 5862 5859 5856 5853 5850 5847 5843 5840 5835
5887 5889 5891 5892 5893 5892 5892 5893 5895 5897 5897 5897 5897 5897 5897 5896 5895 5896 5896 5894 5893 5892 5892 5890 5889 5889 5886 5882 5879 5876 5873 5871 5868 5864 5860 5857 5854 5851 5848 5845 5841 5837 5833
5881 5883 5885 5887 5889 5891 5890 5890 5891 5893 5894 5894 5894 5894 5895 5894 5893 5893 5893 5892 5891 5890 5889 5887 5886 5884 5885 5883 5880 5875 5872 5869 5866 5862 5859 5855 5852 5849 5845 5842 5839 5836 5832
5874 5876 5879 5882 5884 5886 5888 5888 5888 5889 5890 5890 5891 5892 5891 5891 5891 5890 5890 5890 5888 5887 5886 5885 5883 5882 5882 5881 5879 5874 5870 5867 5865 5861 5856 5852 5850 5847 5843 5839 5837 5834 5830
5868 5869 5872 5875 5878 5880 5882 5883 5884 5884 5886 5887 5888 5888 5889 5888 5887 5886 5886 5887 5885 5884 5884 5883 5883 5881 5880 5880 5877 5873 5868 5864 5862 5859 5854 5850 5848 5845 5841 5836 5834 5831 5828
5860 5861 5863 5867 5870 5873 5876 5878 5880 5881 5881 5883 5884 5884 5885 5885 5884 5883 5883 5883 5882 5882 5881 5881 5880 5879 5877 5876 5873 5871 5867 5864 5859 5855 5852 5848 5845 5842 5838 5834 5831 5829 5825
5850 5853 5854 5859 5862 5866 5868 5872 5875 5876 5878 5879 5879 5880 5881 5881 5881 5880 5879 5879 5878 5880 5878 5878 5878 5877 5873 5874 5870 5867 5865 5861 5857 5852 5849 5844 5842 5838 5835 5831 5828 5825 5823
5840 5844 5847 5849 5856 5858 5861 5864 5867 5871 5872 5873 5874 5874 5875 5876 5875 5876 5875 5875 5875 5876 5876 5874 5874 5875 5872 5872 5868 5866 5864 5860 5856 5851 5845 5842 5839 5836 5832 5828 5824 5822 5820
5829 5836 5840 5842 5848 5851 5853 5857 5860 5862 5865 5867 5867 5869 5870 5870 5871 5872 5871 5871 5871 5872 5872 5870 5871 5870 5869 5868 5865 5863 5861 5857 5852 5848 5843 5839 5836 5833 5828 5824 5822 5818 5816
5819 5825 5827 5825 5834 5840 5842 5846 5850 5853 5854 5855 5859 5862 5864 5865 5865 5866 5866 5867 5867 5868 5869 5867 5866 5866 5866 5862 5863 5859 5857 5853 5849 5844 5841 5836 5833 5829 5825 5821 5819 5815 5813
5806 5812 5815 5816 5811 5823 5830 5835 5839 5843 5847 5847 5851 5853 5856 5856 5857 5861 5860 5863 5864 5865 5864 5864 5863 5863 5861 5859 5855 5853 5851 5849 5845 5842 5838 5833 5829 5825 5822 5817 5816 5812 5810
5793 5798 5802 5803 5807 5806 5814 5820 5827 5831 5837 5842 5842 5846 5848 5851 5852 5853 5854 5860 5860 5860 5860 5862 5861 5860 5857 5856 5852 5849 5846 5845 5842 5838 5833 5829 5826 5821 5817 5816 5814 5809 5807
5783 5787 5790 5793 5798 5801 5804 5807 5813 5819 5826 5831 5835 5839 5842 5844 5848 5848 5850 5854 5856 5857 5856 5857 5858 5855 5854 5851 5848 5846 5843 5841 5837 5834 5828 5825 5822 5819 5814 5810 5810 5805 5803
5769 5772 5778 5783 5787 5795 5797 5797 5801 5806 5811 5818 5825 5830 5836 5839 5841 5845 5844 5846 5849 5848 5851 5851 5852 5850 5848 5848 5847 5841 5839 5837 5834 5828 5822 5820 5817 5814 5811 5807 5805 5800 5797
5756 5759 5764 5770 5776 5782 5787 5791 5793 5799 5804 5812 5816 5817 5826 5830 5835 5837 5840 5839 5839 5844 5846 5845 5846 5846 5846 5844 5841 5837 5834 5831 5828 5825 5819 5814 5813 5809 5806 5804 5801 5796 5791
5741 5746 5753 5758 5765 5771 5775 5782 5788 5789 5798 5802 5806 5810 5818 5819 5825 5827 5829 5829 5833 5838 5839 5839 5840 5839 5837 5837 5837 5833 5828 5826 5820 5812 5814 5812 5808 5805 5802 5799 5797 5792 5788
5728 5737 5740 5744 5753 5759 5765 5772 5775 5781 5789 5794 5794 5800 5803 5807 5816 5815 5818 5821 5828 5830 5832 5832 5835 5833 5832 5829 5830 5830 5825 5821 5818 5812 5802 5807 5804 5801 5800 5795 5792 5789 5786
5717 5722 5729 5735 5738 5742 5750 5759 5763 5772 5775 5779 5781 5788 5796 5798 5804 5805 5808 5813 5816 5822 5825 5821 5823 5825 5824 5827 5820 5820 5822 5817 5813 5808 5802 5798 5798 5796 5796 5794 5788 5784 5781
5706 5708 5717 5719 5728 5732 5737 5743 5749 5755 5762 5771 5778 5782 5788 5792 5794 5794 5795 5801 5803 5814 5817 5817 5814 5818 5818 5817 5814 5813 5813 5812 5807 5803 5800 5796 5793 5790 5792 5788 5785 5781 5777